Location: Newark
(55.8871°S, 37.4681°E)
Time: 08:38:36
(UTC+00:00)

ISS - Visible Passes

Search period start: 17 October 2019 00:00
Search period end: 27 October 2019 00:00
Orbit: 411 x 421 km, 51.6° (Epoch: 17 October)

Date Brightness Start Highest point End Pass type
(mag) Time Alt. Az. Time Alt. Az. Time Alt. Az.
19 Oct -1.6 17:21:44 10° NNE 17:22:22 10° NE 17:22:22 10° NE visible
19 Oct -1.1 18:55:19 10° NW 18:55:21 10° NW 18:55:21 10° NW visible
20 Oct -2.5 18:07:07 10° NNW 18:09:50 23° NNE 18:09:50 23° NNE visible
21 Oct -2.1 17:19:06 10° NNW 17:21:30 18° NNE 17:23:55 10° ENE visible
21 Oct -2.7 18:54:29 10° WNW 18:56:50 31° NNW 18:56:50 31° NNW visible
22 Oct -2.9 18:06:06 10° NW 18:09:12 33° NNE 18:10:36 23° ENE visible
22 Oct -1.7 19:42:19 10° WNW 19:43:31 19° WNW 19:43:31 19° WNW visible
23 Oct -2.6 17:17:48 10° NW 17:20:46 27° NNE 17:23:44 10° E visible
23 Oct -3.3 18:53:50 10° WNW 18:57:05 41° N 18:57:05 41° N visible
24 Oct -3.2 18:05:22 10° WNW 18:08:35 39° N 18:10:31 20° ENE visible
24 Oct -1.9 19:41:49 10° W 19:43:24 22° WNW 19:43:24 22° WNW visible
25 Oct -3.0 17:16:55 10° WNW 17:20:06 36° N 17:23:18 10° ENE visible
25 Oct -3.1 18:53:16 10° WNW 18:56:28 37° N 18:56:45 36° N visible
26 Oct -3.1 18:04:45 10° WNW 18:07:59 40° N 18:10:02 19° ENE visible
26 Oct -1.7 19:41:28 10° WNW 19:42:55 18° WNW 19:42:55 18° WNW visible
